Flag for Thailand Weather past 2 weeks in Hat Yai, Thailand

Now
91 °F

Scattered clouds.


Feels Like: 100 °F
Forecast: 71 / 94 °F
Wind: 10 mph from Northeast

Location: Hat Yai Airport

Current Time: Mar 3, 2015 at 4:31:09 PM

Latest Report: Mar 3, 2015 at 4:00 PM


Visibility: N/A

Pressure: 29.74 "Hg

Humidity: 56%

Dew point: 73 °F

Location of Hat YaiLocation

Historic Weather in Hat Yai — Graph

°F

Hat Yai temperature yesterday

Maximum temperature yesterday: 91 °F (at 1:30 PM)
Minimum temperature yesterday: 72 °F (at 5:30 AM)
Average temperature yesterday: 82 °F

Past Weeks' High & Low Weather Summary

 TemperatureHumidityPressure
High93 °F (Mar 1, 12:30 PM)100% (Feb 22, 7:00 AM)29.95 "Hg (Feb 22, 7:00 AM)
Low70 °F (Feb 24, 3:30 AM)44% (Feb 25, 12:30 PM)29.74 "Hg (Feb 17, 3:30 PM)
Average81 °F77%29.85 "Hg
* Reported Feb 16 3:00 PM — Mar 3 3:30 PM, Hat Yai, Weather by CustomWeather, © 2015

Note: Actual official high and low records may vary slightly from our data, if they occured in-between our weather recording intervals... More about our weather records

Advertising

Hat Yai weather history for previous 24 hours

 ConditionsComfort  
Time TempWeatherWind HumidityBarometerVisibility
3:30 PM
Tue, Mar 3
91 °FScattered clouds.12 mph56%29.74 "HgN/A
3:00 PM91 °FScattered clouds.12 mph52%29.74 "HgN/A
2:30 PM91 °FScattered clouds.12 mph56%29.77 "HgN/A
2:00 PM91 °FScattered clouds.9 mph56%29.77 "HgN/A
1:30 PM93 °FBroken clouds.12 mph49%29.80 "HgN/A
1:00 PM93 °FBroken clouds.8 mph49%29.83 "HgN/A
12:30 PM93 °FBroken clouds.8 mph47%29.83 "HgN/A
12:00 PM91 °FBroken clouds.9 mph49%29.86 "HgN/A
11:30 AM91 °FPartly sunny.5 mph52%29.86 "HgN/A
10:30 AM88 °FPartly sunny.7 mph59%29.89 "HgN/A
10:00 AM86 °FPartly sunny.3 mph66%29.92 "HgN/A
9:30 AM86 °FPartly sunny.7 mph66%29.92 "HgN/A
9:00 AM84 °FPartly sunny.8 mph70%29.92 "HgN/A
8:30 AM82 °FPartly sunny.6 mph79%29.92 "HgN/A
8:00 AM79 °FPartly sunny.5 mph89%29.89 "HgN/A
7:30 AM77 °FPartly sunny.3 mph89%29.89 "HgN/A
7:00 AM75 °FPartly sunny.5 mph94%29.89 "HgN/A
6:30 AM75 °FPartly sunny.No wind94%29.86 "HgN/A
6:00 AM75 °FPassing clouds.6 mph94%29.86 "HgN/A
5:30 AM75 °FPassing clouds.5 mph94%29.86 "HgN/A
5:00 AM73 °FPassing clouds.2 mph100%29.83 "HgN/A
4:30 AM73 °FPassing clouds.No wind100%29.83 "HgN/A
4:00 AM75 °FPassing clouds.No wind94%29.83 "HgN/A
3:30 AM77 °FPassing clouds.No wind89%29.83 "HgN/A
3:00 AM75 °FPassing clouds.2 mph94%29.83 "HgN/A
2:30 AM75 °FPassing clouds.2 mph94%29.86 "HgN/A
2:00 AM77 °FPassing clouds.5 mph89%29.86 "HgN/A
1:30 AM77 °FPassing clouds.3 mph89%29.86 "HgN/A
1:00 AM77 °FPassing clouds.5 mph89%29.89 "HgN/A
12:30 AM79 °FPartly cloudy.2 mph89%29.89 "HgN/A
12:00 AM79 °FPassing clouds.No wind84%29.89 "HgN/A
11:30 PM
Mon, Mar 2
79 °FPassing clouds.3 mph89%29.92 "HgN/A
11:00 PM81 °FPartly cloudy.3 mph84%29.92 "HgN/A
10:30 PM81 °FPartly cloudy.3 mph84%29.92 "HgN/A
10:00 PM81 °FPartly cloudy.3 mph84%29.92 "HgN/A
9:30 PM81 °FPartly cloudy.3 mph84%29.89 "HgN/A
9:00 PM81 °FPartly cloudy.6 mph84%29.89 "HgN/A
8:30 PM81 °FPassing clouds.9 mph84%29.86 "HgN/A
8:00 PM82 °FPassing clouds.8 mph66%29.86 "HgN/A
7:30 PM82 °FPassing clouds.9 mph62%29.83 "HgN/A
7:00 PM82 °FPassing clouds.7 mph62%29.83 "HgN/A
6:30 PM84 °FPassing clouds.9 mph58%29.83 "HgN/A
6:00 PM86 °FPartly sunny.14 mph55%29.80 "HgN/A
5:30 PM88 °FPartly sunny.16 mph55%29.80 "HgN/A
5:00 PM88 °FPartly sunny.14 mph59%29.80 "HgN/A
4:30 PM90 °FPartly sunny.9 mph55%29.80 "HgN/A
4:00 PM90 °FPartly sunny.10 mph59%29.80 "HgN/A
Weather by CustomWeather, © 2015

See weather overviewHow to use our weather pages